Location: Arleux
(50.3632°N, 2.8721°E)
Time: 19:42:53
(UTC+00:00)

Cosmos 1634 Rocket - Pass Details

Date: 15 December 2019
Orbit: 960 x 991 km, 82.9° (Epoch: 22 January)

Event Time Altitude Azimuth Distance (km) Brightness Sun altitude
Rises 05:04:24 0° 199° (SSW) 3,648 6.9 -23.8°
Reaches altitude 10° 05:06:56 10° 202° (SSW) 2,702 6.2 -23.4°
Maximum altitude 05:13:03 63° 283° (WNW) 1,076 3.9 -22.4°
Drops below altitude 10° 05:19:12 10° 5° (N) 2,708 6.3 -21.5°
Sets 05:21:45 0° 8° (N) 3,658 7.0 -21.1°
